• In Uzbekistan
  • List of Countries
  • For 7 days
  • Water Temperature
  • Satellite Maps
  • Weather Map
  • Weather Widgets
  • user-avatar
    Login

    Hourly Weather Luanda

    Today, 27 April, Thursday

    Time Temperature Precipitation Wind Pressure Humidity
    00:00 +25°C° 0 mm 2 mps 753 mmHg 81%
    01:00 +24°C° 0 mm 2 mps 753 mmHg 82%
    02:00 +24°C° 0 mm 2 mps 753 mmHg 81%
    03:00 +24°C° 0 mm 2 mps 753 mmHg 81%
    04:00 +24°C° 0 mm 2 mps 753 mmHg 80%
    05:00 +25°C° 0 mm 2 mps 753 mmHg 78%
    06:00 +25°C° 0 mm 2 mps 753 mmHg 75%
    07:00 +26°C° 0 mm 2 mps 753 mmHg 72%
    08:00 +29°C° 0 mm 2 mps 754 mmHg 65%
    09:00 +31°C° 0 mm 2 mps 754 mmHg 57%
    10:00 +33°C° 0 mm 1 mps 754 mmHg 50%
    11:00 +36°C° 0 mm 2 mps 753 mmHg 45%
    12:00 +38°C° 0 mm 3 mps 753 mmHg 41%
    13:00 +38°C° 0 mm 2 mps 753 mmHg 42%
    14:00 +37°C° 0 mm 3 mps 752 mmHg 45%
    15:00 +36°C° 0 mm 3 mps 752 mmHg 48%
    16:00 +35°C° 0 mm 4 mps 751 mmHg 51%
    17:00 +33°C° 0.1 mm 4 mps 752 mmHg 62%
    18:00 +30°C° 0.1 mm 4 mps 752 mmHg 73%
    19:00 +27°C° 0.1 mm 5 mps 752 mmHg 84%
    20:00 +27°C° 0.1 mm 4 mps 753 mmHg 87%
    21:00 +27°C° 0.1 mm 4 mps 753 mmHg 89%
    22:00 +26°C° 0.1 mm 3 mps 754 mmHg 92%
    23:00 +26°C° 0 mm 3 mps 754 mmHg 93%

    Tomorrow, 28 April, Friday

    Time Temperature Precipitation Wind Pressure Humidity
    00:00 +26°C° 0 mm 2 mps 754 mmHg 94%
    01:00 +26°C° 0 mm 2 mps 754 mmHg 94%
    02:00 +26°C° 0 mm 2 mps 754 mmHg 94%
    03:00 +26°C° 0 mm 2 mps 754 mmHg 94%
    04:00 +25°C° 0 mm 2 mps 753 mmHg 94%
    05:00 +26°C° 0 mm 2 mps 754 mmHg 92%
    06:00 +26°C° 0 mm 2 mps 754 mmHg 91%
    07:00 +26°C° 0 mm 2 mps 754 mmHg 89%
    08:00 +29°C° 0 mm 1 mps 754 mmHg 77%
    09:00 +31°C° 0 mm 1 mps 755 mmHg 65%
    10:00 +34°C° 0 mm 1 mps 755 mmHg 54%
    11:00 +36°C° 0.1 mm 2 mps 754 mmHg 50%
    12:00 +37°C° 0.1 mm 2 mps 753 mmHg 47%
    13:00 +38°C° 0.1 mm 3 mps 753 mmHg 43%
    14:00 +37°C° 0.4 mm 4 mps 752 mmHg 48%
    15:00 +36°C° 0.4 mm 4 mps 752 mmHg 53%
    16:00 +35°C° 0.4 mm 5 mps 751 mmHg 58%
    17:00 +33°C° 0.1 mm 5 mps 752 mmHg 66%
    18:00 +30°C° 0.1 mm 4 mps 752 mmHg 73%
    19:00 +28°C° 0.1 mm 4 mps 753 mmHg 81%
    20:00 +28°C° 0.3 mm 3 mps 753 mmHg 84%
    21:00 +28°C° 0.3 mm 2 mps 754 mmHg 87%
    22:00 +27°C° 0.3 mm 2 mps 755 mmHg 90%
    23:00 +27°C° 0.1 mm 2 mps 755 mmHg 90%

    Day after tomorrow, 29 April, Saturday

    Time Temperature Precipitation Wind Pressure Humidity
    00:00 +27°C° 0.1 mm 2 mps 755 mmHg 90%
    01:00 +27°C° 0.1 mm 2 mps 755 mmHg 90%
    02:00 +27°C° 0.1 mm 2 mps 754 mmHg 91%
    03:00 +27°C° 0.1 mm 2 mps 754 mmHg 92%
    04:00 +26°C° 0.1 mm 2 mps 754 mmHg 93%
    05:00 +27°C° 0 mm 3 mps 754 mmHg 92%
    06:00 +27°C° 0 mm 3 mps 754 mmHg 91%
    07:00 +27°C° 0 mm 3 mps 755 mmHg 89%
    08:00 +29°C° 0 mm 3 mps 755 mmHg 79%
    09:00 +31°C° 0 mm 3 mps 755 mmHg 69%
    10:00 +34°C° 0 mm 3 mps 756 mmHg 58%
    11:00 +36°C° 0 mm 4 mps 755 mmHg 51%
    12:00 +38°C° 0 mm 4 mps 754 mmHg 45%
    13:00 +41°C° 0 mm 4 mps 753 mmHg 38%
    14:00 +40°C° 0 mm 5 mps 752 mmHg 41%
    15:00 +39°C° 0 mm 5 mps 752 mmHg 45%
    16:00 +38°C° 0 mm 6 mps 751 mmHg 48%
    17:00 +35°C° 0 mm 5 mps 751 mmHg 57%
    18:00 +32°C° 0 mm 5 mps 752 mmHg 65%
    19:00 +29°C° 0 mm 5 mps 752 mmHg 74%
    20:00 +29°C° 0 mm 4 mps 753 mmHg 77%
    21:00 +28°C° 0 mm 4 mps 753 mmHg 80%
    22:00 +27°C° 0 mm 3 mps 754 mmHg 84%
    23:00 +27°C° 0 mm 3 mps 754 mmHg 85%

    30 April, Sunday

    Time Temperature Precipitation Wind Pressure Humidity
    00:00 +27°C° 0 mm 3 mps 754 mmHg 87%
    01:00 +26°C° 0 mm 3 mps 754 mmHg 88%
    02:00 +26°C° 0 mm 3 mps 754 mmHg 88%
    03:00 +26°C° 0 mm 3 mps 753 mmHg 89%
    04:00 +26°C° 0 mm 3 mps 753 mmHg 90%
    05:00 +26°C° 0 mm 3 mps 753 mmHg 88%
    06:00 +26°C° 0 mm 3 mps 754 mmHg 86%
    07:00 +27°C° 0 mm 4 mps 754 mmHg 84%
    08:00 +29°C° 0 mm 3 mps 754 mmHg 72%
    09:00 +33°C° 0 mm 3 mps 754 mmHg 60%
    10:00 +36°C° 0 mm 3 mps 755 mmHg 48%
    11:00 +38°C° 0 mm 4 mps 754 mmHg 42%
    12:00 +40°C° 0 mm 4 mps 753 mmHg 36%
    13:00 +42°C° 0 mm 4 mps 752 mmHg 30%
    14:00 +41°C° 0 mm 5 mps 751 mmHg 32%
    15:00 +40°C° 0 mm 5 mps 751 mmHg 34%
    16:00 +39°C° 0 mm 5 mps 750 mmHg 36%
    17:00 +36°C° 0 mm 5 mps 750 mmHg 47%
    18:00 +33°C° 0 mm 5 mps 751 mmHg 58%
    19:00 +29°C° 0 mm 4 mps 751 mmHg 70%
    20:00 +29°C° 0 mm 4 mps 752 mmHg 74%
    21:00 +28°C° 0 mm 3 mps 752 mmHg 79%
    22:00 +27°C° 0 mm 2 mps 753 mmHg 84%
    23:00 +27°C° 0 mm 2 mps 753 mmHg 85%

    1 May, Monday

    Time Temperature Precipitation Wind Pressure Humidity
    00:00 +26°C° 0 mm 2 mps 753 mmHg 86%
    01:00 +26°C° 0 mm 2 mps 752 mmHg 87%
    02:00 +26°C° 0 mm 1 mps 752 mmHg 87%
    03:00 +26°C° 0 mm 1 mps 752 mmHg 86%
    04:00 +26°C° 0 mm 1 mps 752 mmHg 86%
    05:00 +26°C° 0 mm 1 mps 752 mmHg 83%
    06:00 +27°C° 0 mm 2 mps 753 mmHg 79%
    07:00 +27°C° 0 mm 2 mps 753 mmHg 76%
    08:00 +30°C° 0 mm 2 mps 753 mmHg 63%
    09:00 +34°C° 0 mm 2 mps 754 mmHg 50%
    10:00 +37°C° 0 mm 2 mps 754 mmHg 37%
    11:00 +38°C° 0 mm 3 mps 753 mmHg 33%
    12:00 +40°C° 0 mm 3 mps 752 mmHg 29%
    13:00 +42°C° 0 mm 4 mps 751 mmHg 25%
    14:00 +41°C° 0 mm 4 mps 751 mmHg 29%
    15:00 +40°C° 0 mm 4 mps 750 mmHg 33%
    16:00 +37°C° 0 mm 4 mps 750 mmHg 37%
    17:00 +35°C° 0 mm 4 mps 750 mmHg 47%
    18:00 +33°C° 0 mm 4 mps 751 mmHg 57%
    19:00 +30°C° 0 mm 4 mps 752 mmHg 67%
    20:00 +28°C° 0 mm 3 mps 752 mmHg 74%
    21:00 +27°C° 0 mm 3 mps 753 mmHg 80%
    22:00 +26°C° 0 mm 2 mps 753 mmHg 87%
    23:00 +26°C° 0 mm 2 mps 753 mmHg 88%

    2 May, Tuesday

    Time Temperature Precipitation Wind Pressure Humidity
    00:00 +26°C° 0 mm 1 mps 753 mmHg 89%
    01:00 +25°C° 0 mm 1 mps 753 mmHg 90%
    02:00 +25°C° 0 mm 1 mps 753 mmHg 89%
    03:00 +25°C° 0 mm 1 mps 752 mmHg 89%
    04:00 +25°C° 0 mm 1 mps 752 mmHg 88%
    05:00 +25°C° 0 mm 1 mps 753 mmHg 83%
    06:00 +26°C° 0 mm 1 mps 753 mmHg 79%
    07:00 +27°C° 0 mm 1 mps 753 mmHg 74%
    08:00 +30°C° 0 mm 1 mps 754 mmHg 62%
    09:00 +32°C° 0 mm 1 mps 754 mmHg 50%
    10:00 +35°C° 0 mm 1 mps 754 mmHg 38%
    11:00 +37°C° 0 mm 2 mps 753 mmHg 34%
    12:00 +39°C° 0 mm 3 mps 752 mmHg 30%
    13:00 +41°C° 0 mm 4 mps 751 mmHg 25%
    14:00 +40°C° 0 mm 4 mps 751 mmHg 29%
    15:00 +38°C° 0 mm 4 mps 750 mmHg 33%
    16:00 +37°C° 0 mm 5 mps 750 mmHg 37%
    17:00 +34°C° 0 mm 4 mps 751 mmHg 50%
    18:00 +32°C° 0 mm 4 mps 751 mmHg 63%
    19:00 +28°C° 0 mm 3 mps 752 mmHg 77%
    20:00 +27°C° 0 mm 3 mps 752 mmHg 81%
    21:00 +26°C° 0 mm 2 mps 753 mmHg 85%
    22:00 +26°C° 0 mm 2 mps 753 mmHg 90%
    23:00 +26°C° 0 mm 1 mps 753 mmHg 90%
    Show more